Regional Weather Roundup
Issued by NWS

Home | Current Version | Previous Version | Text Only | Print | Product List | Glossary On
Versions: 1 2 3 4 5 6 7 8 9 10 11 12 13 14 15 16 17 18 19 20 21 22 23 24 25 26 27 28 29 30 31 32 33 34 35 36 37 38 39 40 41 42 43 44 45 46 47 48 49 50
000
ASUS44 KLUB 221001
RWRTX
WEST TEXAS WEATHER ROUNDUP
NATIONAL WEATHER SERVICE LUBBOCK TX
500 AM CDT WED OCT 22 2014

NOTE: "FAIR" INDICATES FEW OR NO CLOUDS BELOW 12,000 FEET WITH NO
SIGNIFICANT WEATHER AND/OR OBSTRUCTIONS TO VISIBILITY.

TXZ004-006>008-010-012-014-016-OKZ002-221100-
TEXAS PANHANDLE/OKLAHOMA PANHANDLE

CITY           SKY/WX    TMP DP  RH WIND       PRES   REMARKS
AMARILLO       CLOUDY    60  53  77 S9        30.09S
BORGER         CLOUDY    63  51  65 S9        30.06S
CANADIAN       CLEAR     54  50  87 W3        30.05S
DALHART        CLOUDY    59  55  87 S12       30.08S
DUMAS          MOCLDY    58  54  87 S9        30.06F
GUYMON         CLOUDY    61  53  75 S10       30.02F
HEREFORD       CLOUDY    60  58  92 SE6       30.10R
PAMPA          MOCLDY    55  49  79 S10       30.08S
$$

TXZ026-029-035-045-048-221100-
SOUTHERN PANHANDLE/SOUTH PLAINS/ROLLING PLAINS

CITY           SKY/WX    TMP DP  RH WIND       PRES   REMARKS
CHILDRESS      CLEAR     57  49  74 S8        30.07S
LUBBOCK        CLOUDY    62  51  67 S8        30.09S
SNYDER         LGT RAIN  63  53  69 SE8       30.09R
$$

TXZ052-054-060>062-072-078-127-140-154-169-221100-
PERMIAN BASIN/CONCHO VALLEY/BIG COUNTRY/EDWARDS PLATEAU

CITY           SKY/WX    TMP DP  RH WIND       PRES   REMARKS
ABILENE        MOCLDY    64  48  56 SE8       30.08R
BIG SPRING     CLOUDY    64  57  79 E6        30.10S
JUNCTION       MOCLDY    66  48  52 E3        30.07R
MIDLAND        CLOUDY    66  59  78 S8        30.07S
ODESSA         CLOUDY    65  59  81 S9        30.08S
SAN ANGELO     CLOUDY    67  49  52 CALM      30.07R
SONORA         CLOUDY    64  54  68 CALM      30.11R
WINK           CLOUDY    64  61  90 SE10      30.04S
$$

TXZ055-058-074-075-080-082-221100-
FAR WEST/SOUTHWEST MOUNTAINS/TRANS PECOS

CITY           SKY/WX    TMP DP  RH WIND       PRES   REMARKS
ALPINE         CLOUDY    60  57  90 CALM      30.16R
DRYDEN           N/A     65  64  97 NE10      30.02S
EL PASO        MOCLDY    61  55  81 N5        30.06S
FORT STOCKTON  CLOUDY    59  58  96 E5        30.07S
MARFA          CLOUDY    57  55  94 CALM      30.14S
PRESIDIO       CLOUDY    65  60  84 NE3       30.03S
$$

TXZ014-016-019-021>030-083-221100
TEXAS TECH WEST TEXAS MESONET/TEXAS PANHANDLE/NORTHERN SOUTH PLAINS

CITY           SKY/WX    TMP DP  RH WIND       PRES   REMARKS
ABERNATHY 5ENE   N/A     57  52  82 S6        30.10S
AMARILLO 9NNE    N/A     60  53  77 S8        30.07F
AMARILLO 7SSE    N/A     59  53  81 S5        30.10S
AMHERST 1NE      N/A     59  55  85 S5        30.10S
BOOTLEG 11WNW    N/A     58  54  88 S16       30.11S
CANADIAN 6E      N/A     57  50  77 S7        30.05R
CAPROCK CYN SP   N/A     60  51  73 S7        30.08S
CHILDRESS 2NNE   N/A     56  49  77 S10       30.06S
CLARENDON 2WSW   N/A     57  49  74 S5        30.07F
CLAUDE 12SW      N/A     60  51  71 S3        30.09S
DIMMITT 2NE      N/A     58  54  85 S6        30.10S
FLOYDADA 2NNE    N/A     56  50  80 S6        30.09S
FRIONA 2NE       N/A     59  55  87 S7        30.11S
GOODLETT 3W      N/A     57  48  72 S6        30.06S
HART 3N          N/A     60  52  75 S7        30.09S
HEREFORD 2NW     N/A     59  54  84 S6        30.09S
MCLEAN 1E        N/A     55  48  79 S8        30.06S
MEMPHIS 1NE      N/A     51  46  84 NW1       30.07S
MULESHOE 2SSW  RAIN      58  57  94 S6        30.10S
OLTON 6S         N/A     58  52  80 S5        30.09S
PALO DURO SP     N/A     60  51  72 SE5       30.10S
PAMPA 2E         N/A     55  49  79 S6        30.08S
PLAINVIEW 1S     N/A     58  53  80 S6        30.08F
SILVERTON 7ESE   N/A     62  50  64 S9        30.09S
TULIA 2ENE       N/A     57  52  85 S3        30.09S
TURKEY 2WSW      N/A     58  51  77 S7        30.06S
UMBARGER 3NNE    N/A     59  54  84 S7        30.10R
$$

TXZ033>036-039>041-045>048-221100
TEXAS TECH WEST TEXAS MESONET/SOUTH PLAINS

CITY           SKY/WX    TMP DP  RH WIND       PRES   REMARKS
AIKEN 3WSW       N/A     57  52  82 S5        30.10S
ANTON 6SSW       N/A     59  54  82 S3        30.09S
BROWNFIELD 2S  LGT RAIN  59  57  94 SW5       30.10S
DENVR CTY 7WNW   N/A     59  56  91 SE3       30.09S
GAIL 2ESE        N/A     60  54  79 SE3       30.07S
LAMESA 2SE       N/A     60  56  87 E1        30.09S
LEVELLAND 4S     N/A     59  55  87 SE3       30.10R
LUBBOCK 3WNW     N/A     62  53  71 S3        30.09S
MORTON 1ENE      N/A     58  57  96 S5        30.10S
ODONNELL 1N      N/A     59  55  85 S1        30.09S
PLAINS 3N        N/A     60  57  90 S2        30.10S
RALLS 1SE        N/A     56  50  80 S5        30.10S
REESE CENTER     N/A     60  53  77 S5        30.09S
SEMINOLE 2NNE    N/A     61  58  92 SE2       30.09S
SLATON 2NE       N/A     60  52  76 S3        30.09S
SNYDER 3E        N/A     63  53  70 SE8       30.07S
SUNDOWN 8SW      N/A     59  57  92 S3        30.10S
TAHOKA 3NNE      N/A     58  55  89 S5        30.09S
WOLFFORTH 6SSW   N/A     61  56  83 S6        30.10R
$$

TXZ031-032-036>038-042>044-221100-
TEXAS TECH WEST TEXAS MESONET/ROLLING PLAINS

CITY           SKY/WX    TMP DP  RH WIND       PRES   REMARKS
ASPERMONT 3NE    N/A     58  50  74 SE6       30.06S
FLUVANNA 3WNW    N/A     60  51  72 S7        30.07S
GRAHAM 5SSW      N/A     61  51  68 SE3       30.08S
GUTHRIE 10WSW    N/A     59  51  75 SE6       30.06S
HASKELL 1NW      N/A     58  49  71 S2        30.06S
JAYTON 1SSE      N/A     62  51  67 SE5       30.06F
KNOX CITY 3NW    N/A     58  49  71 S2        30.07R
LK A HENRY 1NW   N/A     63  53  70 S3        30.06S
NORTHFIELD 1S    N/A     59  51  75 SW3       30.06S
ODELL 4ENE       N/A     61  50  67 S8        30.07S
PADUCAH 10SW     N/A     57  51  79 S8        30.06F
POST 1NE         N/A     62  51  66 S3        30.07S
RRING SPRGS 3N   N/A     55  50  84 S6        30.07F
SEYMOUR 3NW      N/A     58  49  73 S3        30.06S
SPUR 1W          N/A     55  50  82 CALM      30.06S
WEINERT 2NNE     N/A     57  49  74 S3        30.07R
WHITE RVR 6NE    N/A     59  50  71 E3        30.07F
$$

TXZ052-054-060>062-072-078-127-140-154-169-221100-
TEXAS TECH WEST TEXAS MESONET/PERMIAN BASIN/
CONCHO VALLEY/BIG COUNTRY/EDWARDS PLATEAU

CITY           SKY/WX    TMP DP  RH WIND       PRES   REMARKS
COYANOSA 2N      N/A     63  61  91 E9        30.05S
JUNCTION 1SSW    N/A     65  49  56 CALM      30.07R
MERTZON 3NNE     N/A     66  51  59 S5        30.08S
SAN ANGELO 7NW   N/A     66  49  53 SE2       30.07S
STRLNG CT 4WSW   N/A     67  54  62 SE6       30.08S
ST LAWRNCE 5SW   N/A     65  57  77 SE7       30.08R
SWEETWATR 11SW   N/A     63  50  62 SE8       30.09R
WALL 1E          N/A     64  50  60 E3        30.07S
$$

TXZ055-058-074-075-080-082-221100-
TEXAS TECH WEST TEXAS MESONET/FAR WEST/SOUTHWEST MOUNTAINS/TRANS PECOS

CITY           SKY/WX    TMP DP  RH WIND       PRES   REMARKS
PRSMN GAP BBNP   N/A     63  61  94 N9        30.04S
GUADLPE MTN NP   N/A     55  51  88 SW5       30.15F
$$



USA.gov is the U.S. government's official web portal to all federal, state and local government web resources and services.